Milledgeville, GA

8:46 AM EST on February 08, 2016 (GMT -0500)
Baldwin County

Weather History for KMLJ - March, 2013

Change the Weather History Date:

Friday, March 8, 2013

  Actual Average (KOKZ) Record (KOKZ)
Temperature  
Mean Temperature 50 °F -  
Max Temperature 64 °F 65 °F 72 °F (2015)
Min Temperature 37 °F 41 °F 32 °F (2015)
Degree Days  
Heating Degree Days 14    
Moisture  
Dew Point 32 °F    
Average Humidity 60    
Maximum Humidity 93    
Minimum Humidity 22    
Precipitation  
Precipitation 0.00 in - - ()
Sea Level Pressure  
Sea Level Pressure 30.25 in    
Wind  
Wind Speed 1 mph (NNE)    
Max Wind Speed 6 mph    
Max Gust Speed -    
Visibility 10 miles    
Events      
Averages and records for this station are not official NWS values.
T = Trace of Precipitation, MM = Missing Value Source: NWS Daily Summary

Daily Weather History Graph

Daily Weather History Graph

Search for Another Location

Airport or City:

Trip Planner

Search our weather history database for the weather conditions in past years. The results will help you decide how hot, cold, wet, or windy it might be!

Date:

Astronomy

Mar. 08, 2013 Rise Set
Actual Time 6:52 AM EST 6:35 PM EST
Civil Twilight 6:27 AM EST 7:00 PM EST
Nautical Twilight 5:58 AM EST 7:29 PM EST
Astronomical Twilight 5:29 AM EST 7:57 PM EST
Moon 4:27 AM EST 3:37 PM EST
Length of Visible Light 12h 33m
Length of Day
11h 43m
Waning Crescent, 12% of the Moon is Illuminated
Mar 8
Waning Crescent
Mar 11
New
Mar 19
First Quarter
Mar 27
Full
Apr 3
Last Quarter

Hourly Weather History & Observations

Time (EST) Temp. Windchill Dew Point Humidity Pressure Visibility Wind Dir Wind Speed Gust Speed Precip Events Conditions
12:15 AM 44.6 °F - 32.0 °F 61% 30.20 in 10.0 mi Calm Calm - N/A   Clear
12:35 AM 42.8 °F - 32.0 °F 66% 30.20 in 10.0 mi Calm Calm - N/A   Clear
12:55 AM 42.8 °F - 32.0 °F 66% 30.20 in 10.0 mi Calm Calm - N/A   Clear
1:15 AM 39.2 °F - 32.0 °F 75% 30.20 in 10.0 mi Calm Calm - N/A   Clear
1:35 AM 37.4 °F - 32.0 °F 81% 30.22 in 10.0 mi Calm Calm - N/A   Clear
1:55 AM 39.2 °F - 33.8 °F 81% 30.22 in 10.0 mi Calm Calm - N/A   Clear
2:15 AM 37.4 °F - 32.0 °F 81% 30.22 in 10.0 mi Calm Calm - N/A   Clear
2:35 AM 37.4 °F - 32.0 °F 81% 30.22 in 10.0 mi Calm Calm - N/A   Clear
2:55 AM 37.4 °F - 32.0 °F 81% 30.22 in 10.0 mi Calm Calm - N/A   Clear
3:15 AM 41.0 °F 39.0 °F 32.0 °F 70% 30.22 in 10.0 mi NNW 3.5 mph - N/A   Clear
3:35 AM 42.8 °F 40.1 °F 33.8 °F 70% 30.23 in 10.0 mi North 4.6 mph - N/A   Clear
3:55 AM 41.0 °F 39.0 °F 33.8 °F 76% 30.24 in 10.0 mi North 3.5 mph - N/A   Clear
4:15 AM 41.0 °F 39.0 °F 33.8 °F 76% 30.24 in 10.0 mi NNE 3.5 mph - N/A   Clear
4:35 AM 41.0 °F - 32.0 °F 70% 30.24 in 10.0 mi Calm Calm - N/A   Clear
4:55 AM 41.0 °F 39.0 °F 32.0 °F 70% 30.24 in 10.0 mi NNE 3.5 mph - N/A   Clear
5:15 AM 39.2 °F 37.0 °F 32.0 °F 75% 30.25 in 10.0 mi North 3.5 mph - N/A   Clear
5:35 AM 39.2 °F - 32.0 °F 75% 30.26 in 10.0 mi Calm Calm - N/A   Clear
5:55 AM 37.4 °F - 32.0 °F 81% 30.26 in 10.0 mi Calm Calm - N/A   Clear
6:15 AM 37.4 °F - 32.0 °F 81% 30.27 in 10.0 mi Calm Calm - N/A   Clear
6:35 AM 37.4 °F - 32.0 °F 81% 30.27 in 10.0 mi Calm Calm - N/A   Clear
6:55 AM 37.4 °F - 32.0 °F 81% 30.29 in 10.0 mi Calm Calm - N/A   Clear
7:35 AM 37.4 °F 34.9 °F 32.0 °F 81% 30.30 in 10.0 mi North 3.5 mph - N/A   Clear
7:55 AM 39.2 °F 35.9 °F 32.0 °F 75% 30.31 in 10.0 mi NE 4.6 mph - N/A   Clear
8:15 AM 41.0 °F 39.0 °F 32.0 °F 70% 30.31 in 10.0 mi NE 3.5 mph - N/A   Clear
8:35 AM 41.0 °F 38.0 °F 32.0 °F 70% 30.31 in 10.0 mi ENE 4.6 mph - N/A   Clear
9:15 AM 44.6 °F 41.4 °F 32.0 °F 61% 30.31 in 10.0 mi ENE 5.8 mph - N/A   Clear
9:35 AM 46.4 °F 45.2 °F 30.2 °F 53% 30.32 in 10.0 mi East 3.5 mph - N/A   Clear
9:55 AM 46.4 °F 45.2 °F 30.2 °F 53% 30.32 in 10.0 mi NNE 3.5 mph - N/A   Clear
10:15 AM 48.2 °F - 30.2 °F 50% 30.31 in 10.0 mi Calm Calm - N/A   Clear
10:35 AM 50.0 °F - 30.2 °F 47% 30.31 in 10.0 mi Calm Calm - N/A   Clear
10:55 AM 50.0 °F - 30.2 °F 47% 30.32 in 10.0 mi Calm Calm - N/A   Clear
11:15 AM 51.8 °F - 30.2 °F 44% 30.33 in 10.0 mi Calm Calm - N/A   Clear
11:35 AM 53.6 °F - 30.2 °F 41% 30.32 in 10.0 mi Calm Calm - N/A   Clear
11:55 AM 53.6 °F - 30.2 °F 41% 30.32 in 10.0 mi Calm Calm - N/A   Clear
12:15 PM 55.4 °F - 32.0 °F 41% 30.31 in 10.0 mi ESE 3.5 mph - N/A   Clear
12:35 PM 55.4 °F - 32.0 °F 41% 30.31 in 10.0 mi SE 3.5 mph - N/A   Clear
12:55 PM 59.0 °F - 32.0 °F 36% 30.29 in 10.0 mi Calm Calm - N/A   Clear
1:15 PM 59.0 °F - 32.0 °F 36% 30.28 in 10.0 mi Calm Calm - N/A   Clear
1:35 PM 59.0 °F - 30.2 °F 34% 30.26 in 10.0 mi NNW 4.6 mph - N/A   Clear
1:55 PM 60.8 °F - 30.2 °F 31% 30.24 in 10.0 mi SSE 3.5 mph - N/A   Clear
2:15 PM 60.8 °F - 30.2 °F 31% 30.24 in 10.0 mi Calm Calm - N/A   Clear
3:35 PM 64.4 °F - 26.6 °F 24% 30.21 in 10.0 mi NW 4.6 mph - N/A   Clear
3:55 PM 64.4 °F - 24.8 °F 22% 30.21 in 7.0 mi NW 4.6 mph - N/A   Clear
4:15 PM 64.4 °F - 28.4 °F 26% 30.21 in 10.0 mi NW 5.8 mph - N/A   Clear
4:35 PM 64.4 °F - 28.4 °F 26% 30.21 in 10.0 mi NW 3.5 mph - N/A   Clear
4:55 PM 62.6 °F - 28.4 °F 27% 30.21 in 10.0 mi NW 4.6 mph - N/A   Clear
5:55 PM 62.6 °F - 28.4 °F 27% 30.22 in 10.0 mi Calm Calm - N/A   Clear
6:35 PM 57.2 °F - 33.8 °F 41% 30.22 in 10.0 mi Calm Calm - N/A   Clear
6:55 PM 53.6 °F - 33.8 °F 47% 30.23 in 10.0 mi Calm Calm - N/A   Clear
7:15 PM 51.8 °F - 33.8 °F 50% 30.23 in 10.0 mi Calm Calm - N/A   Clear
7:35 PM 50.0 °F - 35.6 °F 58% 30.23 in 10.0 mi Calm Calm - N/A   Clear
7:55 PM 50.0 °F - 35.6 °F 58% 30.23 in 10.0 mi Calm Calm - N/A   Clear
8:15 PM 46.4 °F - 35.6 °F 66% 30.24 in 10.0 mi Calm Calm - N/A   Clear
8:35 PM 46.4 °F - 33.8 °F 62% 30.24 in 10.0 mi Calm Calm - N/A   Clear
8:55 PM 46.4 °F - 35.6 °F 66% 30.24 in 10.0 mi Calm Calm - N/A   Clear
9:15 PM 44.6 °F - 35.6 °F 71% 30.24 in 10.0 mi Calm Calm - N/A   Clear
9:35 PM 44.6 °F - 35.6 °F 71% 30.24 in 10.0 mi Calm Calm - N/A   Clear
9:55 PM 42.8 °F - 35.6 °F 76% 30.24 in 10.0 mi Calm Calm - N/A   Clear
10:15 PM 42.8 °F - 35.6 °F 76% 30.24 in 10.0 mi Calm Calm - N/A   Clear
10:35 PM 42.8 °F - 35.6 °F 76% 30.25 in 10.0 mi Calm Calm - N/A   Clear
10:55 PM 41.0 °F - 35.6 °F 81% 30.26 in 10.0 mi Calm Calm - N/A   Clear
11:35 PM 41.0 °F - 39.2 °F 93% 30.26 in 7.0 mi Calm Calm - N/A   Clear
11:55 PM 41.0 °F - 37.4 °F 87% 30.26 in 10.0 mi Calm Calm - N/A   Clear